Regional Weather Roundup
Issued by NWS

Home | Current Version | Previous Version | Graphics & Text | Print | Product List | Glossary On
Versions: 1 2 3 4 5 6 7 8 9 10 11 12 13 14 15 16 17 18 19 20 21 22 23 24 25 26 27
000
ASUS45 KCYS 240410
RWRWY

WYOMING REGIONAL WEATHER ROUNDUP
NATIONAL WEATHER SERVICE CHEYENNE WY
900 PM MST FRI FEB 23 2018

NOTE:  "FAIR" INDICATES FEW OR NO CLOUDS BELOW 12,000 FEET
WITH NO SIGNIFICANT WEATHER AND/OR OBSTRUCTIONS TO VISIBILITY.

WYZ001-240500-
YELLOWSTONE NATIONAL PARK

CITY           SKY/WX    TMP DP  RH WIND       PRES   REMARKS
LK YELLOWSTONE   N/A     -8 -12  83 CALM      29.88F
W YELLOWSTONE  NOT AVBL

$$
WYZ002>013-054>058-071-098>099-240500-
NORTHERN WYOMING

CITY           SKY/WX    TMP DP  RH WIND       PRES   REMARKS
JACKSON        FAIR       9   1  70 SW9       29.96S WCI  -4
CODY           FAIR      19   2  47 SW9       29.88F WCI   8
GREYBULL       FAIR      -5  -8  87 W6        29.96R WCI -18
WORLAND        FAIR       6   3  87 CALM      29.93S
SHERIDAN       FAIR      -1  -7  75 N5        29.89F WCI -11
BUFFALO        FAIR      16   2  54 W3        29.86F
GILLETTE       FAIR      14   6  70 S16       29.89F WCI  -2
HULETT         FAIR      25  10  54 S9        29.92F WCI  15
NEWCASTLE      FAIR      14   3  62 S5        29.99R WCI   6

$$
WYZ014>020-022>026-101>103-240500-
CENTRAL WYOMING

CITY           SKY/WX    TMP DP  RH WIND       PRES   REMARKS
BIG PINEY      FAIR       2  -3  80 N14       29.93R WCI -16
PINEDALE       FAIR       3  -6  66 NW9       29.93R WCI -11
DUBOIS           N/A    N/A N/A N/A MISG        N/A
LANDER         FAIR       9   3  77 W5        29.90R WCI   1
RIVERTON       FAIR       7  -3  64 CALM      29.91S
CASPER         LGT SNOW  15  13  91 W3        29.90S FOG
DOUGLAS        FAIR      12   8  84 W3        29.92S

$$
WYZ021-027>030-104>119-240500-
SOUTHERN WYOMING

CITY           SKY/WX    TMP DP  RH WIND       PRES   REMARKS
EVANSTON       FAIR       6   3  87 SW9       29.99R WCI  -8
ROCK SPRINGS   CLOUDY    14   9  80 SW17      29.92S WCI  -3
DIXON          FLURRIES  19  14  82 W9        29.95R WCI   8
RAWLINS        CLOUDY    18  15  88 W14       29.85S FOG     WCI   4
SARATOGA       CLOUDY    18  18 100 NE3       29.85S
LARAMIE        CLOUDY    19  15  84 SE18G29   29.83R WCI   4
CHEYENNE       LGT SNOW  21  20  96 S13       29.89F VSB 3/4 WCI   9
TORRINGTON     FAIR      20  15  81 SE8       29.98S WCI  10
PINE BLUFFS    CLOUDY    21  18  86 SE13G20   29.94F WCI   9

$$




USA.gov is the U.S. government's official web portal to all federal, state and local government web resources and services.